| time (UTC) | temp F | wind direction | speed knots | gust knots | rain 1hr in | rain 24hr in | rain mn in | humidity % | barometer mb |
| 20260831230045 | 80 | 20 | 0.9 | 1.7 | 0.00 | 0.00 | 0.00 | 20 | 1017.8 |
| 20260831224529 | 79 | 32 | 0.9 | 5.2 | 0.00 | 0.00 | 0.00 | 21 | 1018.1 |
| 20260831223009 | 79 | 97 | 0.9 | 3.5 | 0.00 | 0.00 | 0.00 | 21 | 1018.3 |
| 20260831221558 | 79 | 44 | 0.0 | 5.2 | 0.00 | 0.00 | 0.00 | 21 | 1018.6 |
| 20260831221503 | 79 | 360 | 0.0 | 5.2 | 0.00 | 0.00 | 0.00 | 21 | 1018.6 |
| 20260831220045 | 79 | 15 | 0.0 | 3.5 | 0.00 | 0.00 | 0.00 | 21 | 1018.9 |
| 20260831214535 | 79 | 90 | 0.0 | 7.0 | 0.00 | 0.00 | 0.00 | 22 | 1019.2 |
| 20260831213016 | 79 | 26 | 0.0 | 7.0 | 0.00 | 0.00 | 0.00 | 22 | 1019.4 |
| 20260831211511 | 79 | 17 | 0.9 | 3.5 | 0.00 | 0.00 | 0.00 | 22 | 1019.6 |
| 20260831210058 | 78 | 13 | 0.0 | 3.5 | 0.00 | 0.00 | 0.00 | 23 | 1019.7 |
| 20260831204546 | 78 | 313 | 0.0 | 4.3 | 0.00 | 0.00 | 0.00 | 23 | 1019.9 |
| 20260831203025 | 78 | 34 | 0.0 | 5.2 | 0.00 | 0.00 | 0.00 | 23 | 1020.1 |
| 20260831201514 | 78 | 46 | 0.0 | 7.8 | 0.00 | 0.00 | 0.00 | 23 | 1020.4 |
| 20260831200003 | 78 | 33 | 0.9 | 3.5 | 0.00 | 0.00 | 0.00 | 22 | 1020.7 |
| 20260831194610 | 77 | 30 | 0.0 | 7.0 | 0.00 | 0.00 | 0.00 | 23 | 1020.8 |
| 20260831193042 | 77 | 83 | 0.0 | 2.6 | 0.00 | 0.00 | 0.00 | 25 | 1020.8 |
| 20260831191522 | 76 | 52 | 0.0 | 1.7 | 0.00 | 0.00 | 0.00 | 27 | 1021.1 |
| 20260831190015 | 74 | 22 | 0.0 | 2.6 | 0.00 | 0.00 | 0.00 | 27 | 1021.4 |
| 20260831184559 | 73 | 42 | 0.0 | 1.7 | 0.00 | 0.00 | 0.00 | 27 | 1021.7 |
| 20260831183028 | 73 | 21 | 0.0 | 3.5 | 0.00 | 0.00 | 0.00 | 28 | 1021.8 |
| 20260831181514 | 71 | 17 | 0.0 | 2.6 | 0.00 | 0.00 | 0.00 | 29 | 1022.1 |
| 20260831180056 | 70 | 299 | 0.0 | 1.7 | 0.00 | 0.00 | 0.00 | 31 | 1022.1 |
| 20260831174537 | 70 | 15 | 0.0 | 0.0 | 0.00 | 0.00 | 0.00 | 31 | 1022.4 |
| 20260831173025 | 67 | 24 | 0.0 | 2.6 | 0.00 | 0.00 | 0.00 | 35 | 1022.6 |
| 20260831171504 | 65 | 5 | 0.0 | 2.6 | 0.00 | 0.00 | 0.00 | 37 | 1022.7 |
| 20260831170054 | 63 | 36 | 0.0 | 0.0 | 0.00 | 0.00 | 0.00 | 41 | 1022.9 |
| 20260831164537 | 62 | 15 | 0.0 | 0.0 | 0.00 | 0.00 | 0.00 | 41 | 1023.0 |
| 20260831163014 | 61 | 320 | 0.0 | 0.0 | 0.00 | 0.00 | 0.00 | 43 | 1023.0 |
| 20260831161551 | 60 | 319 | 0.0 | 0.9 | 0.00 | 0.00 | 0.00 | 44 | 1023.1 |
| 20260831160032 | 58 | 319 | 0.0 | 0.0 | 0.00 | 0.00 | 0.00 | 45 | 1023.2 |
| 20260831154523 | 58 | 318 | 0.0 | 0.0 | 0.00 | 0.00 | 0.00 | 47 | 1023.3 |
| 20260831153107 | 57 | 319 | 0.0 | 0.0 | 0.00 | 0.00 | 0.00 | 48 | 1023.2 |
| 20260831151545 | 55 | 279 | 0.0 | 0.0 | 0.00 | 0.00 | 0.00 | 51 | 1023.2 |
| 20260831150010 | 54 | 279 | 0.0 | 0.0 | 0.00 | 0.00 | 0.00 | 53 | 1023.1 |
| 20260831144545 | 52 | 274 | 0.0 | 0.0 | 0.00 | 0.00 | 0.00 | 57 | 1023.2 |
| 20260831143024 | 49 | 267 | 0.0 | 0.0 | 0.00 | 0.00 | 0.00 | 65 | 1023.1 |
| 20260831141510 | 47 | 222 | 0.0 | 0.0 | 0.00 | 0.00 | 0.00 | 69 | 1022.9 |
| 20260831140100 | 46 | 223 | 0.0 | 0.0 | 0.00 | 0.00 | 0.00 | 67 | 1022.9 |
| 20260831140001 | 46 | 223 | 0.0 | 0.0 | 0.00 | 0.00 | 0.00 | 67 | 1022.9 |
| 20260831134604 | 46 | 223 | 0.0 | 0.0 | 0.00 | 0.00 | 0.00 | 67 | 1022.9 |
| 20260831133104 | 45 | 223 | 0.0 | 0.0 | 0.00 | 0.00 | 0.00 | 66 | 1022.9 |
| 20260831131556 | 45 | 223 | 0.0 | 0.0 | 0.00 | 0.00 | 0.00 | 66 | 1022.9 |
| 20260831130044 | 46 | 223 | 0.0 | 0.0 | 0.00 | 0.00 | 0.00 | 65 | 1022.7 |
| 20260831124520 | 46 | 223 | 0.0 | 0.0 | 0.00 | 0.00 | 0.00 | 65 | 1022.7 |
| 20260831123014 | 45 | 222 | 0.0 | 0.0 | 0.00 | 0.00 | 0.00 | 65 | 1022.8 |
| 20260831121503 | 46 | 223 | 0.0 | 0.0 | 0.00 | 0.00 | 0.00 | 65 | 1022.8 |
| 20260831120045 | 46 | 223 | 0.0 | 0.0 | 0.00 | 0.00 | 0.00 | 64 | 1022.9 |
| 20260831114521 | 46 | 222 | 0.0 | 0.0 | 0.00 | 0.00 | 0.00 | 63 | 1022.9 |
| 20260831113012 | 46 | 223 | 0.0 | 0.0 | 0.00 | 0.00 | 0.00 | 63 | 1022.9 |
| 20260831111509 | 46 | 232 | 0.0 | 0.0 | 0.00 | 0.00 | 0.00 | 63 | 1022.9 |
| 20260831110047 | 46 | 232 | 0.0 | 0.0 | 0.00 | 0.00 | 0.00 | 63 | 1023.0 |
| 20260831104533 | 46 | 232 | 0.0 | 0.0 | 0.00 | 0.00 | 0.00 | 62 | 1023.0 |
| 20260831103022 | 46 | 232 | 0.0 | 0.0 | 0.00 | 0.00 | 0.00 | 62 | 1023.0 |
| 20260831101512 | 47 | 232 | 0.0 | 0.0 | 0.00 | 0.00 | 0.00 | 61 | 1023.1 |
| 20260831100059 | 47 | 238 | 0.0 | 0.0 | 0.00 | 0.00 | 0.00 | 61 | 1023.1 |
| 20260831094559 | 47 | 238 | 0.0 | 0.0 | 0.00 | 0.00 | 0.00 | 60 | 1023.1 |
| 20260831093048 | 47 | 237 | 0.0 | 0.0 | 0.00 | 0.00 | 0.00 | 60 | 1023.2 |
| 20260831091525 | 47 | 238 | 0.0 | 0.0 | 0.00 | 0.00 | 0.00 | 60 | 1023.2 |
| 20260831090003 | 48 | 238 | 0.0 | 0.0 | 0.00 | 0.00 | 0.00 | 59 | 1023.4 |
| 20260831084650 | 48 | 238 | 0.0 | 0.0 | 0.00 | 0.00 | 0.00 | 58 | 1023.4 |
| 20260831084503 | 48 | 238 | 0.0 | 0.0 | 0.00 | 0.00 | 0.00 | 58 | 1023.4 |
| 20260831083050 | 48 | 237 | 0.0 | 0.0 | 0.00 | 0.00 | 0.00 | 59 | 1023.4 |
| 20260831081525 | 48 | 238 | 0.0 | 0.0 | 0.00 | 0.00 | 0.00 | 59 | 1023.3 |
| 20260831080027 | 48 | 237 | 0.0 | 0.0 | 0.00 | 0.00 | 0.00 | 57 | 1023.3 |
| 20260831074557 | 49 | 237 | 0.0 | 0.0 | 0.00 | 0.00 | 0.00 | 56 | 1023.4 |
| 20260831073042 | 50 | 238 | 0.0 | 0.0 | 0.00 | 0.00 | 0.00 | 55 | 1023.3 |
| 20260831071517 | 51 | 250 | 0.0 | 0.0 | 0.00 | 0.00 | 0.00 | 54 | 1023.2 |
| 20260831070029 | 51 | 248 | 0.0 | 0.0 | 0.00 | 0.00 | 0.00 | 52 | 1023.3 |
| 20260831064510 | 52 | 154 | 0.0 | 0.0 | 0.00 | 0.00 | 0.00 | 51 | 1023.2 |
| 20260831063110 | 52 | 155 | 0.0 | 0.0 | 0.00 | 0.00 | 0.00 | 51 | 1023.3 |
| 20260831061552 | 52 | 155 | 0.0 | 0.0 | 0.00 | 0.00 | 0.00 | 51 | 1023.4 |
| 20260831060049 | 52 | 149 | 0.0 | 0.0 | 0.00 | 0.00 | 0.00 | 50 | 1023.6 |
| 20260831054536 | 53 | 153 | 0.0 | 0.0 | 0.00 | 0.00 | 0.00 | 50 | 1023.7 |
| 20260831053026 | 53 | 153 | 0.0 | 0.0 | 0.00 | 0.00 | 0.00 | 49 | 1023.7 |
| 20260831051524 | 53 | 146 | 0.0 | 0.0 | 0.00 | 0.00 | 0.00 | 49 | 1023.6 |
| 20260831050009 | 54 | 153 | 0.0 | 0.0 | 0.00 | 0.00 | 0.00 | 49 | 1023.7 |
| 20260831044512 | 54 | 151 | 0.0 | 0.0 | 0.00 | 0.00 | 0.00 | 48 | 1023.7 |
| 20260831043051 | 55 | 163 | 0.0 | 0.0 | 0.00 | 0.00 | 0.00 | 49 | 1023.6 |
| 20260831041537 | 55 | 161 | 0.0 | 0.0 | 0.00 | 0.00 | 0.00 | 49 | 1023.7 |
| 20260831040036 | 55 | 162 | 0.0 | 2.6 | 0.00 | 0.00 | 0.00 | 48 | 1023.6 |
| 20260831034526 | 56 | 106 | 0.0 | 0.0 | 0.00 | 0.00 | 0.00 | 47 | 1023.6 |
| 20260831033012 | 57 | 105 | 0.0 | 0.0 | 0.00 | 0.00 | 0.00 | 46 | 1023.4 |
| 20260831031559 | 58 | 137 | 0.0 | 0.0 | 0.00 | 0.00 | 0.00 | 44 | 1023.3 |
| 20260831030054 | 60 | 137 | 0.0 | 0.0 | 0.00 | 0.00 | 0.00 | 42 | 1023.0 |
| 20260831024549 | 62 | 57 | 0.0 | 0.0 | 0.00 | 0.00 | 0.00 | 38 | 1022.8 |
| 20260831023025 | 64 | 23 | 0.0 | 1.7 | 0.00 | 0.00 | 0.00 | 36 | 1022.8 |
| 20260831021512 | 65 | 26 | 0.0 | 3.5 | 0.00 | 0.00 | 0.00 | 35 | 1022.7 |
| 20260831020002 | 66 | 20 | 0.0 | 2.6 | 0.00 | 0.00 | 0.00 | 35 | 1022.6 |
| 20260831014615 | 66 | 5 | 0.0 | 4.3 | 0.00 | 0.00 | 0.00 | 33 | 1022.7 |
| 20260831013054 | 67 | 32 | 0.0 | 4.3 | 0.00 | 0.00 | 0.00 | 33 | 1022.7 |
| 20260831011529 | 68 | 5 | 0.0 | 4.3 | 0.00 | 0.00 | 0.00 | 32 | 1022.7 |
| 20260831010017 | 68 | 43 | 0.9 | 4.3 | 0.00 | 0.00 | 0.00 | 32 | 1022.6 |
| 20260831004502 | 68 | 70 | 0.9 | 3.5 | 0.00 | 0.00 | 0.00 | 32 | 1022.7 |
| 20260831003043 | 68 | 58 | 0.9 | 5.2 | 0.00 | 0.00 | 0.00 | 32 | 1022.8 |
| 20260831001541 | 68 | 32 | 0.9 | 7.0 | 0.00 | 0.00 | 0.00 | 32 | 1022.8 |
| 20260831000025 | 68 | 5 | 0.9 | 2.6 | 0.00 | 0.00 | 0.00 | 32 | 1022.8 |
| 20260830234517 | 69 | 22 | 0.9 | 5.2 | 0.00 | 0.00 | 0.00 | 30 | 1022.8 |
| 20260830233011 | 70 | 29 | 0.9 | 2.6 | 0.00 | 0.00 | 0.00 | 28 | 1022.8 |
| 20260830231559 | 70 | 10 | 0.0 | 6.1 | 0.00 | 0.00 | 0.00 | 24 | 1023.0 |